sat.trackr.live / text

‹ back to catalog

LEMUR-2-PEGGY-2004

NORAD 68479 · 2026-067BR

PAYLOAD ACTIVE UNKNOWN

§ Identity

Operator
Country
LUXE
Launch date
2026-03-30
Launch site
AFWTR
Launch vehicle
Mass (kg)
RCS (m²)

External: N2YO · Heavens-Above · Gunter

§ Orbital elements

Epoch: 2026-09-20T02:40:31.175616Z

Period
96.42 min
Inclination
97.7646°
Eccentricity
0.0001380
Mean motion
14.93491681 rev/d
Perigee alt
586.1 km
Apogee alt
588.0 km
Semi-major
6,965.2 km
B*
2.7817e-4
RAAN
220.1036°
Arg perigee
36.7492°
Mean anomaly
323.3822°
Rev number
2,589

§ Raw data

LEMUR-2-PEGGY-20041 68479U 26067BR  26263.11147194  .00002871  00000+0  27817-3 0  99972 68479  97.7646 220.1036 0001380  36.7492 323.3822 14.93491681 25895

JSON: /api/v1/satellites/68479 · /tle

For live sub-satellite position, see the globe view (requires WebGL).

§ Visibility from observer

Set your observer location to see the next 7 days of passes ≥ 10°. The values pass through the URL so the page stays shareable.

No JS? Fill the form by hand. The geolocation button needs JavaScript.